TimeCST,TemperatureF,Dew PointF,Humidity,Sea Level PressureIn,VisibilityMPH,Wind Direction,Wind SpeedMPH,Gust SpeedMPH,PrecipitationIn,Events,Conditions,WindDirDegrees,DateUTC
12:15 AM,26.8,23.7,88,30.33,7.0,SSW,4.6,-,N/A,,Clear,210,2012-11-28 06:15:00
12:35 AM,27.5,23.9,86,30.33,7.0,SSW,5.8,-,N/A,,Clear,200,2012-11-28 06:35:00
12:55 AM,27.5,23.9,86,30.33,7.0,SSW,5.8,-,N/A,,Clear,210,2012-11-28 06:55:00
1:15 AM,27.1,23.7,87,30.33,7.0,SW,4.6,-,N/A,,Clear,220,2012-11-28 07:15:00
1:35 AM,27.3,23.4,85,30.33,7.0,SW,3.5,-,N/A,,Clear,230,2012-11-28 07:35:00
1:55 AM,27.3,23.5,86,30.34,7.0,SW,5.8,-,N/A,,Clear,220,2012-11-28 07:55:00
2:15 AM,27.0,23.7,88,30.34,7.0,SSW,4.6,-,N/A,,Clear,210,2012-11-28 08:15:00
2:35 AM,26.4,23.4,88,30.34,7.0,SSW,3.5,-,N/A,,Clear,210,2012-11-28 08:35:00
2:55 AM,26.4,23.0,87,30.34,7.0,SSW,3.5,-,N/A,,Clear,200,2012-11-28 08:55:00
3:15 AM,25.9,23.2,90,30.34,7.0,Calm,Calm,-,N/A,,Clear,0,2012-11-28 09:15:00
3:35 AM,27.1,23.7,87,30.34,7.0,SW,3.5,-,N/A,,Clear,230,2012-11-28 09:35:00
3:55 AM,26.4,23.5,89,30.34,7.0,SW,4.6,-,N/A,,Clear,220,2012-11-28 09:55:00
4:15 AM,26.4,23.2,88,30.34,7.0,Calm,Calm,-,N/A,,Clear,0,2012-11-28 10:15:00
4:35 AM,28.2,23.0,81,30.35,10.0,SW,3.5,-,N/A,,Clear,230,2012-11-28 10:35:00
4:55 AM,27.1,23.0,84,30.35,10.0,SW,3.5,-,N/A,,Clear,230,2012-11-28 10:55:00
5:15 AM,26.4,22.3,84,30.36,10.0,SW,3.5,-,N/A,,Clear,230,2012-11-28 11:15:00
5:35 AM,26.1,22.1,85,30.36,10.0,SSW,3.5,-,N/A,,Clear,200,2012-11-28 11:35:00
6:15 AM,26.1,22.8,88,30.38,7.0,SW,4.6,-,N/A,,Clear,220,2012-11-28 12:15:00
6:35 AM,25.7,22.6,88,30.38,7.0,SW,3.5,-,N/A,,Clear,230,2012-11-28 12:35:00
6:55 AM,25.3,22.1,87,30.39,7.0,SW,3.5,-,N/A,,Clear,220,2012-11-28 12:55:00
7:15 AM,26.1,22.8,88,30.40,7.0,Calm,Calm,-,N/A,,Clear,0,2012-11-28 13:15:00
7:35 AM,27.0,23.0,85,30.40,7.0,Calm,Calm,-,N/A,,Clear,0,2012-11-28 13:35:00
7:55 AM,28.6,25.2,87,30.41,7.0,Calm,Calm,-,N/A,,Clear,0,2012-11-28 13:55:00
8:15 AM,31.6,25.0,76,30.42,10.0,Calm,Calm,-,N/A,,Clear,0,2012-11-28 14:15:00
8:35 AM,32.5,25.7,76,30.42,10.0,Calm,Calm,-,N/A,,Clear,0,2012-11-28 14:35:00
8:55 AM,34.3,24.4,67,30.43,10.0,WNW,4.6,-,N/A,,Clear,290,2012-11-28 14:55:00
9:15 AM,35.2,25.0,66,30.43,10.0,Calm,Calm,-,N/A,,Clear,0,2012-11-28 15:15:00
9:35 AM,36.7,26.2,66,30.43,10.0,Calm,Calm,-,N/A,,Clear,0,2012-11-28 15:35:00
9:55 AM,37.8,25.3,61,30.43,10.0,Calm,Calm,-,N/A,,Clear,0,2012-11-28 15:55:00
10:15 AM,38.7,24.4,57,30.44,10.0,Calm,Calm,-,N/A,,Clear,0,2012-11-28 16:15:00
10:35 AM,40.6,24.8,53,30.44,10.0,Calm,Calm,-,N/A,,Clear,0,2012-11-28 16:35:00
10:55 AM,41.0,25.7,55,30.43,10.0,SW,3.5,-,N/A,,Clear,230,2012-11-28 16:55:00
11:15 AM,41.5,26.6,55,30.43,10.0,Calm,Calm,-,N/A,,Clear,0,2012-11-28 17:15:00
11:35 AM,42.6,27.3,55,30.42,10.0,SSW,3.5,-,N/A,,Clear,200,2012-11-28 17:35:00
11:55 AM,44.1,27.7,53,30.41,10.0,South,4.6,-,N/A,,Clear,190,2012-11-28 17:55:00
12:15 PM,44.6,28.9,54,30.41,10.0,South,5.8,-,N/A,,Clear,190,2012-11-28 18:15:00
12:35 PM,45.7,30.0,54,30.40,10.0,South,6.9,-,N/A,,Clear,190,2012-11-28 18:35:00
12:55 PM,45.7,28.9,52,30.40,10.0,South,6.9,-,N/A,,Clear,190,2012-11-28 18:55:00
1:15 PM,46.4,28.4,50,30.39,10.0,South,6.9,-,N/A,,Clear,190,2012-11-28 19:15:00
1:35 PM,46.6,29.3,51,30.38,10.0,South,9.2,-,N/A,,Clear,180,2012-11-28 19:35:00
1:55 PM,46.8,30.0,52,30.37,10.0,South,8.1,-,N/A,,Clear,170,2012-11-28 19:55:00
2:15 PM,47.1,29.5,50,30.37,10.0,South,6.9,-,N/A,,Clear,190,2012-11-28 20:15:00
2:35 PM,46.9,29.8,51,30.36,10.0,South,8.1,-,N/A,,Clear,190,2012-11-28 20:35:00
2:55 PM,46.6,29.8,52,30.36,10.0,South,8.1,-,N/A,,Clear,190,2012-11-28 20:55:00
3:15 PM,46.4,29.5,52,30.35,10.0,South,6.9,-,N/A,,Clear,170,2012-11-28 21:15:00
3:35 PM,46.0,30.0,54,30.35,10.0,South,6.9,-,N/A,,Clear,180,2012-11-28 21:35:00
3:55 PM,45.1,31.1,58,30.35,10.0,South,5.8,-,N/A,,Clear,170,2012-11-28 21:55:00
4:15 PM,42.8,30.4,62,30.35,10.0,SSE,6.9,-,N/A,,Clear,160,2012-11-28 22:15:00
4:35 PM,40.8,29.8,65,30.35,10.0,SSE,5.8,-,N/A,,Clear,160,2012-11-28 22:35:00
4:55 PM,38.7,29.5,70,30.35,10.0,SSE,6.9,-,N/A,,Clear,160,2012-11-28 22:55:00
5:15 PM,37.0,29.3,74,30.36,10.0,South,6.9,-,N/A,,Clear,170,2012-11-28 23:15:00
5:35 PM,37.0,29.1,73,30.35,10.0,SSE,6.9,-,N/A,,Clear,160,2012-11-28 23:35:00
5:55 PM,37.2,28.4,70,30.35,10.0,SSE,5.8,-,N/A,,Clear,150,2012-11-28 23:55:00
6:35 PM,36.0,28.2,73,30.35,10.0,SSE,5.8,-,N/A,,Clear,150,2012-11-29 00:35:00
6:55 PM,35.8,28.0,73,30.35,10.0,SE,6.9,-,N/A,,Clear,140,2012-11-29 00:55:00
7:15 PM,36.1,28.0,72,30.35,10.0,SSE,6.9,-,N/A,,Clear,150,2012-11-29 01:15:00
7:35 PM,35.8,27.7,72,30.34,10.0,SSE,5.8,-,N/A,,Clear,150,2012-11-29 01:35:00
7:55 PM,35.4,27.5,73,30.34,10.0,SE,5.8,-,N/A,,Clear,140,2012-11-29 01:55:00
8:15 PM,35.4,27.3,72,30.33,10.0,SSE,6.9,-,N/A,,Clear,150,2012-11-29 02:15:00
8:35 PM,35.8,27.5,72,30.33,10.0,SSE,6.9,-,N/A,,Clear,150,2012-11-29 02:35:00
8:55 PM,35.1,27.5,74,30.33,10.0,SSE,5.8,-,N/A,,Clear,150,2012-11-29 02:55:00
9:15 PM,34.5,27.1,74,30.33,10.0,SSE,6.9,-,N/A,,Clear,150,2012-11-29 03:15:00
9:35 PM,35.2,27.3,73,30.33,10.0,SSE,6.9,-,N/A,,Clear,160,2012-11-29 03:35:00
9:55 PM,34.9,27.3,74,30.32,10.0,SSE,8.1,-,N/A,,Clear,150,2012-11-29 03:55:00
10:15 PM,35.6,27.3,72,30.32,10.0,SSE,6.9,-,N/A,,Clear,150,2012-11-29 04:15:00
10:35 PM,35.4,27.1,72,30.31,10.0,SSE,8.1,-,N/A,,Clear,150,2012-11-29 04:35:00
10:55 PM,35.6,27.0,71,30.31,10.0,SSE,8.1,-,N/A,,Clear,150,2012-11-29 04:55:00
11:15 PM,35.2,27.0,72,30.31,10.0,SSE,6.9,-,N/A,,Clear,150,2012-11-29 05:15:00
11:35 PM,34.3,27.0,74,30.31,10.0,SSE,6.9,-,N/A,,Clear,160,2012-11-29 05:35:00
11:55 PM,34.2,27.1,75,30.31,10.0,SSE,8.1,-,N/A,,Clear,160,2012-11-29 05:55:00